Location: *
(6.0000°S, 32.3997°W)
Time: 13:55:56
(UTC+00:00)

SL-08 ROCKET BODY - Visible Passes

Search period start: 06 August 2020 00:00
Search period end: 16 August 2020 00:00
Orbit: 898 x 962 km, 82.9° (Epoch: 05 August)

Date Brightness Start Highest point End Pass type
(mag) Time Alt. Az. Time Alt. Az. Time Alt. Az.
06 Aug 6.3 06:05:45 10° NNE 06:10:34 26° E 06:15:21 10° SE visible
06 Aug 5.4 07:50:13 10° NW 07:54:39 22° W 07:59:06 10° SW visible
07 Aug 5.5 06:16:42 10° NNE 06:22:14 42° E 06:27:44 10° SSE visible
08 Aug 4.6 06:28:04 10° N 06:33:55 68° E 06:39:45 10° S visible
09 Aug 4.2 06:39:43 10° N 06:45:37 76° W 06:51:29 10° S visible
10 Aug 7.1 05:11:28 10° ENE 05:13:18 11° E 05:15:09 10° ESE visible
10 Aug 4.5 06:51:41 10° NNW 06:57:19 47° W 07:02:54 10° SSW visible
11 Aug 6.6 05:20:52 10° NE 05:24:58 20° E 05:29:02 10° SE visible
11 Aug 5.1 07:04:02 10° NW 07:09:01 29° W 07:14:01 10° SSW visible
12 Aug 6.1 05:31:30 10° NNE 05:35:06 28° ENE 05:35:06 28° ENE visible
12 Aug 5.9 07:16:56 10° NW 07:18:35 15° WNW 07:18:35 15° WNW visible
13 Aug 6.3 05:42:37 10° NNE 05:44:25 20° NNE 05:44:25 20° NNE visible
14 Aug 6.7 05:54:07 10° N 05:54:20 11° N 05:54:20 11° N visible
